カタログに戻る

THORAD AGENA D DEB

運用中PO
NORAD 4935·DEBRIS·🇺🇸 United States

打ち上げ Apr 8, 1970 から Vandenberg Space Force Base

Loading…

次のパス (今後24時間)

TLE

最新Source: Space-Track

元期: Sep 14, 2026, 08:03 UTC

1 04935U 70025GB  26257.33542817  .00000494  00000-0  45322-3 0  9996
2 04935  99.8658  30.0843 0064291 134.7630 254.7868 13.87403542829402

AllMySatでTHORAD AGENA D DEBをリアルタイム追跡

Download on the App Store